This is the latest recevied weather packets stored in our database for station/object PY1AU-13. If no packets are shown the sender has not sent any weather packets the latest 10 day(s).
| Time | Temp. | Humidity | Pressure | Rain* | Wind** | Luminosity | Snow |
|---|---|---|---|---|---|---|---|
| 1777758221 | 28.89° C | 84% | 1016.6 hPa | - | - | - | - |
| 1777757921 | 28.89° C | 84% | 1016.6 hPa | - | - | - | - |
| 1777757621 | 28.89° C | 84% | 1016.6 hPa | - | - | - | - |
| 1777757321 | 28.89° C | 84% | 1016.6 hPa | - | - | - | - |
| 1777757021 | 28.89° C | 84% | 1016.5 hPa | - | - | - | - |
| 1777756721 | 28.89° C | 84% | 1016.7 hPa | - | - | - | - |
| 1777756421 | 28.89° C | 84% | 1016.6 hPa | - | - | - | - |
| 1777756121 | 28.89° C | 83% | 1016.6 hPa | - | - | - | - |
| 1777755821 | 28.89° C | 83% | 1016.5 hPa | - | - | - | - |
| 1777755521 | 28.89° C | 82% | 1016.5 hPa | - | - | - | - |
| 1777755221 | 28.89° C | 82% | 1016.5 hPa | - | - | - | - |
| 1777754921 | 28.89° C | 81% | 1016.5 hPa | - | - | - | - |
| 1777754621 | 28.89° C | 79% | 1016.3 hPa | - | - | - | - |
| 1777754321 | 28.89° C | 76% | 1016.3 hPa | - | - | - | - |
| 1777754021 | 28.89° C | 73% | 1016.2 hPa | - | - | - | - |
| 1777753721 | 28.89° C | 72% | 1016.2 hPa | - | - | - | - |
| 1777753421 | 29.44° C | 72% | 1016 hPa | - | - | - | - |
| 1777753121 | 29.44° C | 73% | 1016 hPa | - | - | - | - |
| 1777752821 | 29.44° C | 79% | 1016 hPa | - | - | - | - |
| 1777752521 | 29.44° C | 84% | 1016 hPa | - | - | - | - |
| 1777752221 | 29.44° C | 86% | 1015.8 hPa | - | - | - | - |
| 1777751921 | 29.44° C | 86% | 1015.8 hPa | - | - | - | - |
| 1777751621 | 29.44° C | 86% | 1015.5 hPa | - | - | - | - |
| 1777751321 | 29.44° C | 86% | 1015.4 hPa | - | - | - | - |
| 1777751021 | 29.44° C | 85% | 1015.2 hPa | - | - | - | - |
* Rain since midnight (hover to see other rain measurements)
** Current wind speed in m/s (hover to see current wind gust speed)